.
WxDataArchive / Data Records for 2009-12-21
2009-12-20 December 2009 2009-12-22

Data Records for Monday, 21 December 2009

Time	Temp	Chill	HIndex	Humid	Dewpt	 Wind 	HiWind	WindDir	Rain 	Barom 
-----	----	-----	------	-----	-----	------	------	-------	-----	----- 
00:00	28.8	28.8	28.8	88	25.7	0	0	---	0.00	30.121 
00:05	28.8	28.8	28.8	88	25.7	0	0	---	0.00	30.121 
00:10	28.8	28.8	28.8	88	25.7	0	0	---	0.00	30.121 
00:15	28.8	28.8	28.8	88	25.7	0	0	---	0.00	30.121 
00:20	28.8	28.8	28.8	88	25.7	0	1	248	0.00	30.121 
00:25	28.7	28.7	28.7	88	25.6	0	1	---	0.00	30.121 
00:30	28.7	28.7	28.7	88	25.6	0	1	248	0.00	30.118 
00:35	28.7	28.7	28.7	88	25.6	0	0	---	0.00	30.118 
00:40	28.5	28.5	28.5	88	25.4	0	1	248	0.00	30.118 
00:45	28.5	28.5	28.5	88	25.4	0	1	248	0.00	30.115 
00:50	28.5	28.5	28.5	88	25.4	0	2	248	0.00	30.115 
00:55	28.5	28.5	28.5	88	25.4	0	0	---	0.00	30.115 
01:00	28.5	28.5	28.5	88	25.4	0	1	248	0.00	30.110 
01:05	28.5	28.5	28.5	88	25.4	0	1	248	0.00	30.110 
01:10	28.5	28.5	28.5	89	25.7	0	1	248	0.00	30.110 
01:15	28.4	28.4	28.4	89	25.6	0	1	248	0.00	30.107 
01:20	28.4	28.4	28.4	89	25.6	0	1	248	0.00	30.107 
01:25	28.4	28.4	28.4	89	25.6	0	2	248	0.00	30.107 
01:30	28.4	28.4	28.4	89	25.6	0	2	248	0.00	30.104 
01:35	28.4	28.4	28.4	89	25.6	0	1	248	0.00	30.104 
01:40	28.4	28.4	28.4	89	25.6	0	1	248	0.00	30.104 
01:45	28.4	28.4	28.4	89	25.6	0	1	248	0.00	30.109 
01:50	28.4	28.4	28.4	89	25.6	0	1	248	0.00	30.109 
01:55	28.4	28.4	28.4	89	25.6	0	1	248	0.00	30.109 
02:00	28.4	28.4	28.4	89	25.6	0	1	248	0.00	30.106 
02:05	28.4	28.4	28.4	89	25.6	0	0	---	0.00	30.106 
02:10	28.4	28.4	28.4	89	25.6	0	0	---	0.00	30.106 
02:15	28.4	28.4	28.4	89	25.6	0	1	248	0.00	30.112 
02:20	28.4	28.4	28.4	89	25.6	0	0	---	0.00	30.112 
02:25	28.4	28.4	28.4	90	25.8	0	1	248	0.00	30.112 
02:30	28.4	28.4	28.4	90	25.8	0	2	248	0.00	30.114 
02:35	28.2	28.2	28.2	90	25.7	0	0	---	0.00	30.114 
02:40	28.2	28.2	28.2	90	25.7	0	1	248	0.00	30.114 
02:45	28.2	28.2	28.2	89	25.4	0	1	248	0.00	30.120 
02:50	28.2	28.2	28.2	90	25.7	0	1	248	0.00	30.120 
02:55	28.2	28.2	28.2	90	25.7	0	0	---	0.00	30.120 
03:00	28.2	28.2	28.2	89	25.4	0	1	248	0.00	30.122 
03:05	28.2	28.2	28.2	89	25.4	0	1	248	0.00	30.122 
03:10	28.1	28.1	28.1	89	25.3	0	1	248	0.00	30.122 
03:15	28.1	28.1	28.1	89	25.3	0	3	248	0.00	30.123 
03:20	28.1	28.1	28.1	89	25.3	0	1	248	0.00	30.123 
03:25	28.1	28.1	28.1	89	25.3	0	2	248	0.00	30.123 
03:30	28.1	28.1	28.1	89	25.3	0	1	248	0.00	30.120 
03:35	28.1	28.1	28.1	89	25.3	0	0	---	0.00	30.120 
03:40	28.1	28.1	28.1	89	25.3	0	1	248	0.00	30.120 
03:45	28.1	28.1	28.1	89	25.3	0	2	248	0.00	30.117 
03:50	27.9	27.9	27.9	89	25.1	0	2	248	0.00	30.117 
03:55	27.9	27.9	27.9	90	25.4	0	1	248	0.00	30.117 
04:00	27.9	27.9	27.9	90	25.4	0	1	248	0.00	30.109 
04:05	27.8	27.8	27.8	90	25.3	0	1	248	0.00	30.109 
04:10	27.6	27.6	27.6	90	25.1	0	1	248	0.00	30.109 
04:15	27.6	27.6	27.6	90	25.1	0	2	248	0.00	30.109 
04:20	27.6	27.6	27.6	90	25.1	0	1	248	0.00	30.109 
04:25	27.6	27.6	27.6	90	25.1	0	1	248	0.00	30.109 
04:30	27.6	27.6	27.6	90	25.1	0	1	248	0.00	30.111 
04:35	27.6	27.6	27.6	90	25.1	0	1	248	0.00	30.111 
04:40	27.6	27.6	27.6	90	25.1	0	1	248	0.00	30.111 
04:45	27.6	27.6	27.6	90	25.1	0	1	248	0.00	30.109 
04:50	27.6	27.6	27.6	90	25.1	0	1	248	0.00	30.109 
04:55	27.6	27.6	27.6	90	25.1	0	1	248	0.00	30.109 
05:00	27.6	27.6	27.6	90	25.1	0	1	248	0.00	30.110 
05:05	27.6	27.6	27.6	90	25.1	0	1	248	0.00	30.110 
05:10	27.6	27.6	27.6	90	25.1	0	0	---	0.00	30.110 
05:15	27.6	27.6	27.6	91	25.3	0	1	248	0.00	30.108 
05:20	27.6	27.6	27.6	91	25.3	0	2	248	0.00	30.108 
05:25	27.6	27.6	27.6	91	25.3	1	3	248	0.00	30.108 
05:30	27.6	27.6	27.6	90	25.1	0	2	248	0.00	30.111 
05:35	27.6	27.6	27.6	90	25.1	0	1	248	0.00	30.111 
05:40	27.6	27.6	27.6	90	25.1	0	1	248	0.00	30.111 
05:45	27.6	27.6	27.6	90	25.1	0	0	---	0.00	30.115 
05:50	27.6	27.6	27.6	90	25.1	0	1	248	0.00	30.115 
05:55	27.5	27.5	27.5	90	25.0	0	1	248	0.00	30.115 
06:00	27.5	27.5	27.5	90	25.0	0	2	248	0.00	30.111 
06:05	27.5	27.5	27.5	90	25.0	0	1	248	0.00	30.111 
06:10	27.5	27.5	27.5	89	24.7	0	0	---	0.00	30.111 
06:15	27.5	27.5	27.5	89	24.7	0	1	248	0.00	30.111 
06:20	27.5	27.5	27.5	89	24.7	0	1	248	0.00	30.111 
06:25	27.3	27.3	27.3	89	24.5	0	1	248	0.00	30.111 
06:30	27.3	27.3	27.3	89	24.5	0	0	---	0.00	30.118 
06:35	27.3	27.3	27.3	89	24.5	0	2	248	0.00	30.118 
06:40	27.3	27.3	27.3	89	24.5	0	0	---	0.00	30.118 
06:45	27.3	27.3	27.3	89	24.5	0	0	---	0.00	30.124 
06:50	27.3	27.3	27.3	89	24.5	0	1	248	0.00	30.124 
06:55	27.3	27.3	27.3	89	24.5	0	1	248	0.00	30.124 
07:00	27.3	27.3	27.3	88	24.2	0	1	248	0.00	30.127 
07:05	27.3	27.3	27.3	88	24.2	0	2	248	0.00	30.127 
07:10	27.3	27.3	27.3	88	24.2	0	1	248	0.00	30.127 
07:15	27.3	27.3	27.3	88	24.2	1	3	248	0.00	30.138 
07:20	27.2	27.2	27.2	88	24.1	1	3	248	0.00	30.138 
07:25	27.2	27.2	27.2	88	24.1	0	2	248	0.00	30.138 
07:30	27.2	27.2	27.2	87	23.9	0	2	248	0.00	30.140 
07:35	27.0	27.0	27.0	87	23.7	0	1	248	0.00	30.140 
07:40	27.0	27.0	27.0	87	23.7	0	2	248	0.00	30.140 
07:45	27.0	27.0	27.0	86	23.4	0	2	248	0.00	30.140 
07:50	27.0	27.0	27.0	86	23.4	0	1	248	0.00	30.140 
07:55	27.0	27.0	27.0	86	23.4	0	2	248	0.00	30.140 
08:00	26.9	26.9	26.9	86	23.3	0	2	248	0.00	30.139 
08:05	26.9	26.9	26.9	86	23.3	0	1	248	0.00	30.139 
08:10	26.9	26.9	26.9	85	23.0	0	1	248	0.00	30.139 
08:15	26.9	26.9	26.9	85	23.0	0	3	248	0.00	30.141 
08:20	26.7	26.7	26.7	85	22.8	0	1	248	0.00	30.141 
08:25	26.9	26.9	26.9	85	23.0	0	1	248	0.00	30.141 
08:30	26.9	26.9	26.9	85	23.0	0	2	248	0.00	30.143 
08:35	26.9	26.9	26.9	85	23.0	0	1	248	0.00	30.143 
08:40	26.9	26.9	26.9	85	23.0	0	1	248	0.00	30.143 
08:45	26.9	26.9	26.9	85	23.0	0	3	248	0.00	30.155 
08:50	27.0	27.0	27.0	85	23.1	0	2	248	0.00	30.155 
08:55	27.0	27.0	27.0	84	22.8	0	1	248	0.00	30.155 
09:00	27.0	27.0	27.0	84	22.8	0	2	248	0.00	30.155 
09:05	27.2	27.2	27.2	84	23.0	0	2	248	0.00	30.155 
09:10	27.2	27.2	27.2	84	23.0	0	2	248	0.00	30.155 
09:15	27.2	27.2	27.2	84	23.0	1	3	248	0.00	30.160 
09:20	27.2	27.2	27.2	84	23.0	1	4	248	0.00	30.160 
09:25	27.3	27.3	27.3	84	23.1	1	3	248	0.00	30.160 
09:30	27.3	27.3	27.3	84	23.1	1	3	248	0.00	30.157 
09:35	27.5	27.5	27.5	84	23.3	1	3	248	0.00	30.157 
09:40	27.5	27.5	27.5	84	23.3	1	3	248	0.00	30.157 
09:45	27.5	27.5	27.5	84	23.3	1	5	248	0.00	30.160 
09:50	27.5	27.5	27.5	83	23.0	1	3	248	0.00	30.160 
09:55	27.6	27.6	27.6	83	23.1	0	3	248	0.00	30.160 
10:00	27.8	27.8	27.8	83	23.3	1	3	248	0.00	30.163 
10:05	27.9	27.9	27.9	83	23.4	1	3	248	0.00	30.163 
10:10	27.9	27.9	27.9	83	23.4	2	4	248	0.00	30.163 
10:15	28.1	28.1	28.1	83	23.6	1	3	248	0.00	30.170 
10:20	28.1	28.1	28.1	82	23.3	1	3	248	0.00	30.170 
10:25	28.1	28.1	28.1	82	23.3	1	5	248	0.00	30.170 
10:30	28.2	28.2	28.2	82	23.4	1	4	270	0.00	30.172 
10:35	28.2	28.2	28.2	81	23.1	1	3	270	0.00	30.172 
10:40	28.4	28.4	28.4	81	23.3	1	3	248	0.00	30.172 
10:45	28.5	28.5	28.5	81	23.4	1	3	248	0.00	30.173 
10:50	28.7	28.7	28.7	81	23.6	1	3	248	0.00	30.173 
10:55	28.7	28.7	28.7	81	23.6	1	4	248	0.00	30.173 
11:00	28.8	28.8	28.8	81	23.7	1	3	248	0.00	30.169 
11:05	29.0	29.0	29.0	81	23.9	1	4	248	0.00	30.169 
11:10	29.1	29.1	29.1	81	24.0	1	3	248	0.00	30.169 
11:15	29.3	29.3	29.3	81	24.2	1	2	270	0.00	30.171 
11:20	29.0	29.0	29.0	81	23.9	1	4	270	0.00	30.171 
11:25	29.0	29.0	29.0	81	23.9	1	4	248	0.00	30.171 
11:30	29.0	29.0	29.0	81	23.9	1	3	248	0.00	30.176 
11:35	28.8	28.8	28.8	81	23.7	1	3	248	0.00	30.176 
11:40	28.8	28.8	28.8	82	24.0	2	3	270	0.00	30.176 
11:45	28.8	28.8	28.8	81	23.7	2	5	270	0.00	30.174 
11:50	28.8	28.8	28.8	82	24.0	1	3	270	0.00	30.174 
11:55	28.8	28.8	28.8	81	23.7	1	4	248	0.00	30.174 
12:00	29.0	29.0	29.0	81	23.9	1	4	248	0.00	30.171 
12:05	29.1	29.1	29.1	81	24.0	1	4	248	0.00	30.171 
12:10	29.3	29.3	29.3	81	24.2	1	3	270	0.00	30.171 
12:15	29.3	29.3	29.3	81	24.2	1	3	248	0.00	30.165 
12:20	29.1	29.1	29.1	81	24.0	1	2	248	0.00	30.165 
12:25	29.0	29.0	29.0	81	23.9	1	4	270	0.00	30.165 
12:30	29.0	29.0	29.0	81	23.9	2	4	248	0.00	30.167 
12:35	29.0	29.0	29.0	81	23.9	1	4	248	0.00	30.167 
12:40	29.0	29.0	29.0	81	23.9	1	3	248	0.00	30.167 
12:45	29.1	29.1	29.1	81	24.0	1	3	248	0.00	30.170 
12:50	29.1	29.1	29.1	81	24.0	1	5	270	0.00	30.170 
12:55	29.3	29.3	29.3	80	23.9	1	2	270	0.00	30.170 
13:00	29.3	29.3	29.3	80	23.9	1	3	270	0.00	30.169 
13:05	29.3	29.3	29.3	79	23.6	2	4	248	0.00	30.169 
13:10	29.3	29.3	29.3	79	23.6	1	3	270	0.00	30.169 
13:15	29.4	29.4	29.4	79	23.7	1	3	270	0.00	30.159 
13:20	29.5	29.5	29.5	78	23.5	1	2	270	0.00	30.159 
13:25	29.7	29.7	29.7	79	24.0	0	2	270	0.00	30.159 
13:30	29.7	29.7	29.7	78	23.7	1	3	270	0.00	30.158 
13:35	29.5	29.5	29.5	77	23.2	1	2	292	0.00	30.158 
13:40	29.5	29.5	29.5	77	23.2	1	3	338	0.00	30.158 
13:45	29.5	29.5	29.5	77	23.2	1	2	270	0.00	30.159 
13:50	29.5	29.5	29.5	77	23.2	1	2	270	0.00	30.159 
13:55	29.7	29.7	29.7	77	23.4	0	2	270	0.01	30.159 
14:00	29.7	29.7	29.7	77	23.4	0	2	270	0.00	30.156 
14:05	29.8	29.8	29.8	77	23.5	0	1	270	0.00	30.156 
14:10	29.7	29.7	29.7	77	23.4	1	2	270	0.00	30.156 
14:15	29.7	29.7	29.7	77	23.4	0	2	292	0.00	30.156 
14:20	29.7	29.7	29.7	78	23.7	1	3	270	0.00	30.156 
14:25	29.5	29.5	29.5	77	23.2	1	2	270	0.00	30.156 
14:30	29.5	29.5	29.5	78	23.5	1	4	270	0.00	30.156 
14:35	29.5	29.5	29.5	78	23.5	1	4	248	0.00	30.156 
14:40	29.4	29.4	29.4	78	23.4	0	3	248	0.00	30.156 
14:45	29.5	29.5	29.5	78	23.5	0	3	248	0.00	30.158 
14:50	29.4	29.4	29.4	79	23.7	0	3	248	0.00	30.158 
14:55	29.4	29.4	29.4	78	23.4	1	2	248	0.00	30.158 
15:00	29.4	29.4	29.4	78	23.4	0	2	248	0.00	30.171 
15:05	29.4	29.4	29.4	78	23.4	1	3	248	0.00	30.171 
15:10	29.3	29.3	29.3	78	23.3	1	4	248	0.00	30.171 
15:15	29.1	29.1	29.1	78	23.1	1	4	248	0.00	30.173 
15:20	29.1	29.1	29.1	78	23.1	1	3	248	0.00	30.173 
15:25	29.0	29.0	29.0	78	23.0	1	3	315	0.00	30.173 
15:30	29.1	29.1	29.1	79	23.4	1	3	270	0.00	30.172 
15:35	29.1	29.1	29.1	79	23.4	1	4	248	0.00	30.172 
15:40	29.1	29.1	29.1	80	23.7	0	2	248	0.00	30.172 
15:45	29.0	29.0	29.0	80	23.6	1	3	270	0.00	30.172 
15:50	29.0	29.0	29.0	80	23.6	1	4	270	0.00	30.172 
15:55	29.0	29.0	29.0	80	23.6	1	5	270	0.00	30.172 
16:00	28.8	28.8	28.8	80	23.4	1	4	248	0.00	30.173 
16:05	28.8	28.8	28.8	80	23.4	1	3	248	0.00	30.173 
16:10	28.8	28.8	28.8	81	23.7	0	2	248	0.00	30.173 
16:15	28.7	28.7	28.7	81	23.6	1	4	248	0.00	30.175 
16:20	28.7	28.7	28.7	81	23.6	1	3	248	0.00	30.175 
16:25	28.5	28.5	28.5	81	23.4	1	4	248	0.00	30.175 
16:30	28.4	28.4	28.4	81	23.3	2	4	248	0.00	30.181 
16:35	28.2	28.2	28.2	81	23.1	1	3	292	0.00	30.181 
16:40	28.1	28.1	28.1	81	23.0	2	4	270	0.00	30.181 
16:45	28.1	28.1	28.1	81	23.0	1	2	270	0.00	30.183 
16:50	28.2	28.2	28.2	81	23.1	1	3	270	0.00	30.183 
16:55	28.2	28.2	28.2	81	23.1	1	3	248	0.00	30.183 
17:00	28.1	28.1	28.1	81	23.0	1	3	248	0.00	30.183 
17:05	28.1	28.1	28.1	82	23.3	1	3	248	0.00	30.183 
17:10	28.1	28.1	28.1	82	23.3	0	2	248	0.00	30.183 
17:15	28.1	28.1	28.1	82	23.3	1	3	248	0.00	30.188 
17:20	27.9	27.9	27.9	82	23.1	1	3	248	0.00	30.188 
17:25	27.9	27.9	27.9	82	23.1	0	2	248	0.00	30.188 
17:30	27.9	27.9	27.9	82	23.1	0	1	248	0.00	30.189 
17:35	27.9	27.9	27.9	82	23.1	0	1	248	0.00	30.189 
17:40	27.9	27.9	27.9	82	23.1	0	4	248	0.00	30.189 
17:45	27.9	27.9	27.9	82	23.1	0	3	248	0.00	30.190 
17:50	27.9	27.9	27.9	83	23.4	1	3	248	0.00	30.190 
17:55	28.1	28.1	28.1	83	23.6	0	1	248	0.00	30.190 
18:00	28.1	28.1	28.1	83	23.6	0	1	248	0.00	30.194 
18:05	28.1	28.1	28.1	83	23.6	0	1	248	0.00	30.194 
18:10	27.9	27.9	27.9	83	23.4	0	1	248	0.00	30.194 
18:15	28.1	28.1	28.1	83	23.6	0	2	248	0.00	30.194 
18:20	28.1	28.1	28.1	83	23.6	0	2	248	0.00	30.194 
18:25	28.1	28.1	28.1	83	23.6	0	1	248	0.00	30.194 
18:30	28.1	28.1	28.1	83	23.6	0	2	248	0.00	30.212 
18:35	28.1	28.1	28.1	83	23.6	0	1	248	0.00	30.212 
18:40	28.1	28.1	28.1	83	23.6	0	1	248	0.00	30.212 
18:45	28.1	28.1	28.1	83	23.6	0	1	248	0.00	30.222 
18:50	27.9	27.9	27.9	83	23.4	0	2	248	0.00	30.222 
18:55	27.9	27.9	27.9	83	23.4	0	1	248	0.00	30.222 
19:00	27.9	27.9	27.9	83	23.4	0	2	248	0.00	30.218 
19:05	27.8	27.8	27.8	83	23.3	0	1	248	0.00	30.218 
19:10	27.8	27.8	27.8	83	23.3	1	3	248	0.00	30.218 
19:15	27.8	27.8	27.8	83	23.3	1	3	248	0.00	30.228 
19:20	27.8	27.8	27.8	83	23.3	0	2	248	0.00	30.228 
19:25	27.8	27.8	27.8	83	23.3	0	2	248	0.00	30.228 
19:30	27.8	27.8	27.8	83	23.3	0	2	248	0.00	30.225 
19:35	27.8	27.8	27.8	84	23.6	0	1	248	0.00	30.225 
19:40	27.8	27.8	27.8	84	23.6	0	1	248	0.00	30.225 
19:45	27.8	27.8	27.8	84	23.6	0	2	248	0.00	30.222 
19:50	27.8	27.8	27.8	84	23.6	0	2	248	0.00	30.222 
19:55	27.8	27.8	27.8	84	23.6	0	2	248	0.00	30.222 
20:00	27.9	27.9	27.9	84	23.7	0	1	248	0.00	30.226 
20:05	27.9	27.9	27.9	84	23.7	0	2	248	0.00	30.226 
20:10	27.9	27.9	27.9	84	23.7	0	2	248	0.00	30.226 
20:15	27.9	27.9	27.9	84	23.7	0	1	248	0.00	30.237 
20:20	27.9	27.9	27.9	84	23.7	0	2	248	0.00	30.237 
20:25	27.9	27.9	27.9	84	23.7	0	2	248	0.00	30.237 
20:30	27.9	27.9	27.9	84	23.7	0	3	248	0.00	30.235 
20:35	27.9	27.9	27.9	84	23.7	0	1	248	0.00	30.235 
20:40	27.9	27.9	27.9	84	23.7	0	2	248	0.00	30.235 
20:45	27.9	27.9	27.9	84	23.7	0	2	248	0.00	30.235 
20:50	27.9	27.9	27.9	84	23.7	0	2	248	0.00	30.235 
20:55	27.9	27.9	27.9	84	23.7	1	2	248	0.00	30.235 
21:00	27.9	27.9	27.9	85	24.0	1	3	248	0.00	30.236 
21:05	27.9	27.9	27.9	85	24.0	1	4	248	0.00	30.236 
21:10	27.9	27.9	27.9	85	24.0	1	3	248	0.00	30.236 
21:15	27.9	27.9	27.9	85	24.0	1	3	248	0.00	30.223 
21:20	27.9	27.9	27.9	85	24.0	1	4	248	0.00	30.223 
21:25	27.9	27.9	27.9	85	24.0	1	3	248	0.00	30.223 
21:30	27.8	27.8	27.8	85	23.9	1	3	248	0.00	30.227 
21:35	27.8	27.8	27.8	85	23.9	1	3	248	0.00	30.227 
21:40	27.8	27.8	27.8	85	23.9	1	2	248	0.00	30.227 
21:45	27.8	27.8	27.8	85	23.9	1	3	248	0.00	30.237 
21:50	27.8	27.8	27.8	85	23.9	1	3	248	0.00	30.237 
21:55	27.8	27.8	27.8	85	23.9	1	4	248	0.00	30.237 
22:00	27.8	27.8	27.8	85	23.9	1	2	248	0.00	30.230 
22:05	27.8	27.8	27.8	85	23.9	0	3	248	0.00	30.230 
22:10	27.8	27.8	27.8	85	23.9	0	3	248	0.00	30.230 
22:15	27.8	27.8	27.8	85	23.9	0	2	248	0.00	30.235 
22:20	27.8	27.8	27.8	85	23.9	0	3	248	0.00	30.235 
22:25	27.8	27.8	27.8	85	23.9	0	3	248	0.00	30.235 
22:30	27.8	27.8	27.8	85	23.9	0	2	248	0.00	30.238 
22:35	27.8	27.8	27.8	85	23.9	0	3	248	0.00	30.238 
22:40	27.8	27.8	27.8	85	23.9	0	2	248	0.00	30.238 
22:45	27.8	27.8	27.8	85	23.9	0	2	248	0.00	30.228 
22:50	27.8	27.8	27.8	85	23.9	1	4	248	0.00	30.228 
22:55	27.8	27.8	27.8	85	23.9	0	2	248	0.00	30.228 
23:00	27.8	27.8	27.8	85	23.9	0	1	248	0.00	30.220 
23:05	27.8	27.8	27.8	85	23.9	0	2	248	0.00	30.220 
23:10	27.8	27.8	27.8	85	23.9	0	2	248	0.00	30.220 
23:15	27.8	27.8	27.8	85	23.9	0	2	248	0.00	30.225 
23:20	27.8	27.8	27.8	85	23.9	0	2	248	0.00	30.225 
23:25	27.8	27.8	27.8	85	23.9	0	3	248	0.00	30.225 
23:30	27.8	27.8	27.8	85	23.9	0	1	248	0.00	30.221 
23:35	27.8	27.8	27.8	85	23.9	0	1	248	0.00	30.221 
23:40	27.8	27.8	27.8	85	23.9	0	1	248	0.00	30.221 
23:45	27.8	27.8	27.8	85	23.9	0	1	248	0.00	30.227 
23:50	27.8	27.8	27.8	85	23.9	0	1	248	0.00	30.227 
23:55	27.8	27.8	27.8	85	23.9	0	0	---	0.00	30.227 

CoCoRaHS
IN-AL-39
A2 Web Hosting
Creative Commons License
GoDaddy
search engine by freefind advanced

loaded 2018-11-20 15:23:16 • last modified 2010-11-18 10:43:29
Privacy PolicyDisclaimer
• wx.awcolley.com is powered by PmWiki v.2002016 •
• all content (unless otherwise noted) © 2018 A W Colley